Date,TemperatureHighF,TemperatureAvgF,TemperatureLowF,DewpointHighF,DewpointAvgF,DewpointLowF,HumidityHigh,HumidityAvg,HumidityLow,PressureMaxIn,PressureMinIn,WindSpeedMaxMPH,WindSpeedAvgMPH,GustSpeedMaxMPH,PrecipitationSumIn
2013-9-1,61,58,54,54,49,46,80,74,64,30.35,30.19,12,7,27,0.00
2013-9-2,72,65,60,60,56,54,84,75,62,30.33,30.17,12,7,26,0.00
2013-9-3,73,65,55,60,55,50,85,71,48,30.34,30.27,11,4,23,0.00
2013-9-4,73,62,54,58,51,48,87,68,44,30.28,30.00,8,2,16,0.00
2013-9-5,68,58,46,51,46,39,83,64,40,30.01,29.96,8,3,17,0.00
2013-9-6,62,52,45,48,44,40,88,75,56,30.03,29.98,3,1,11,0.19
2013-9-7,64,55,48,55,47,43,89,76,56,30.02,29.83,4,2,15,0.08
2013-9-8,64,55,46,49,45,41,87,71,50,30.07,30.01,2,1,7,0.06
2013-9-9,66,54,49,53,48,45,90,79,55,30.25,30.03,5,1,12,0.01
2013-9-10,70,58,48,49,46,42,84,67,43,30.33,30.25,6,2,19,0.00
2013-9-11,64,57,50,56,52,45,88,83,74,30.33,30.16,3,1,6,0.20
2013-9-12,68,60,54,58,54,50,91,82,65,30.17,29.96,7,2,13,0.08
2013-9-13,57,53,48,50,48,45,88,82,73,30.20,30.05,6,1,13,0.04
2013-9-14,65,53,42,55,44,39,93,73,47,30.15,30.00,7,2,15,0.00
2013-9-15,59,52,42,56,46,38,91,80,63,30.00,29.26,17,5,34,0.32
2013-9-16,58,49,40,46,41,36,88,75,57,29.40,29.34,13,5,27,0.01
2013-9-17,59,51,43,46,42,38,84,70,56,29.48,29.35,9,5,22,0.00
2013-9-18,61,50,38,51,41,36,90,72,50,29.81,29.47,10,3,22,0.00
2013-9-19,56,49,42,50,45,38,89,85,77,29.85,29.60,2,0,6,0.22
2013-9-20,63,54,44,55,46,41,90,76,60,30.11,29.85,8,2,18,0.00
2013-9-21,63,58,52,57,52,46,85,78,69,30.19,30.09,9,2,20,0.00
2013-9-22,70,63,54,58,55,50,84,76,57,30.37,30.18,10,5,24,0.00
2013-9-23,68,59,49,57,53,46,89,82,69,30.37,30.20,4,1,9,0.00
2013-9-24,64,60,57,56,54,52,86,82,72,30.20,30.06,2,1,7,0.00
2013-9-25,57,55,46,53,49,41,87,81,71,30.15,30.00,3,1,13,0.00
2013-9-26,60,53,44,49,44,40,86,73,56,30.21,30.15,2,1,6,0.00
2013-9-27,61,56,52,54,51,48,87,84,77,30.16,30.02,1,0,2,0.05
2013-9-28,69,58,49,57,51,45,89,78,57,30.03,29.94,2,0,7,0.00
2013-9-29,65,56,51,50,47,44,81,72,55,30.03,29.99,3,2,10,0.00
2013-9-30,61,55,52,49,47,45,82,73,62,30.01,29.92,3,2,14,0.00